Hourly Data Report for October 28, 2015

All times are specified in Local Standard Time (LST). Add 1 hour to adjust for Daylight Saving Time where and when it is observed.

MONCTON INTL A
NEW BRUNSWICK

46°06'44.000" N
64°40'43.000" W
70.70 m
8103201
71705
YQM

Download Data

Hourly Data (October 2015)
Hourly Data Report for October 28, 2015
Temp Definition
°C
Dew Point Temp Definition
°C
Rel Hum Definition
%
Wind Dir Definition
10's deg

Wind Spd Definition
km/h
Visibility Definition
km
Stn Press Definition
kPa
Hmdx Definition


Wind Chill Definition


Weather Definition


TIME
00:00 Legend Double Dagger 1.8 -3.5 68 27 19 24.1 102.36     LegendNANA
01:00 Legend Double Dagger 1.9 -3.6 67 28 17 24.1 102.42     LegendNANA
02:00 Legend Double Dagger 0.1 -4.0 74 27 8 24.1 102.48     Clear
03:00 Legend Double Dagger -1.6 -4.3 82 20 9 24.1 102.49   -5 LegendNANA
04:00 Legend Double Dagger -2.5 -4.4 87 22 10 24.1 102.51   -6 LegendNANA
05:00 Legend Double Dagger -2.9 -4.6 88 22 13 24.1 102.56   -8 Clear
06:00 Legend Double Dagger -2.4 -4.6 85 23 14 24.1 102.61   -7 LegendNANA
07:00 Legend Double Dagger -3.8 -5.2 90 22 10 24.1 102.62   -8 LegendNANA
08:00 Legend Double Dagger -1.6 -3.5 87 23 10 24.1 102.69   -5 Mainly Clear
09:00 Legend Double Dagger 1.2 -2.2 78 24 15 24.1 102.71     LegendNANA
10:00 Legend Double Dagger 3.8 -1.6 68 24 9 24.1 102.67     LegendNANA
11:00 Legend Double Dagger 6.3 -5.4 43 23 8 24.1 102.56     Mostly Cloudy
12:00 Legend Double Dagger 7.1 -3.5 47 29 5 24.1 102.49     LegendNANA
13:00 Legend Double Dagger 8.1 -4.4 41 24 14 24.1 102.38     LegendNANA
14:00 Legend Double Dagger 9.2 -3.7 40 25 17 24.1 102.33     Mostly Cloudy
15:00 Legend Double Dagger 9.0 -2.9 43 22 11 24.1 102.25     LegendNANA
16:00 Legend Double Dagger 7.8 -1.4 52 13 9 24.1 102.22     LegendNANA
17:00 Legend Double Dagger 6.3 -1.1 59 14 8 24.1 102.18     Cloudy
18:00 Legend Double Dagger 5.9 -0.4 64 20 9 24.1 102.18     LegendNANA
19:00 Legend Double Dagger 5.7 -0.4 65 20 5 24.1 102.11     LegendNANA
20:00 Legend Double Dagger 5.0 -0.4 68 17 10 24.1 102.04     Cloudy
21:00 Legend Double Dagger 5.3 -0.5 66 17 10 24.1 102.00     LegendNANA
22:00 Legend Double Dagger 5.9 0.7 69 16 13 24.1 101.94     Rain Showers
23:00 Legend Double Dagger 5.4 1.0 73 13 9 24.1 101.80     Mostly Cloudy

Notes on Data Quality.

Legend

  • E = Estimated
  • M = Missing
  • NA = Not Available
  • ‡ = Partner data that is not subject to review by the National Climate Archives
Date modified: